GW3613 Weather Reports


time (UTC)temp
C
wind
direction
speed
KPH
gust
KPH
rain 1hr
cm
rain 24hr
cm
rain mn
cm
humidity
%
barometer
mb
20260510204507 17 103 1.6 11.3 0.00 0.00 0.00 40 1025.9
20260510204005 17 107 3.2 14.5 0.00 0.00 0.00 39 1025.8
20260510203504 17 80 1.6 14.5 0.00 0.00 0.00 40 1025.5
20260510203008 18 76 4.8 14.5 0.00 0.00 0.00 40 1025.3
20260510202504 17 101 4.8 20.9 0.00 0.00 0.00 41 1025.1
20260510202007 17 115 9.7 20.9 0.00 0.00 0.00 40 1025.2
20260510201516 17 61 4.8 14.5 0.00 0.00 0.00 42 1025.2
20260510201006 17 86 6.4 14.5 0.00 0.00 0.00 44 1025.3
20260510200505 16 124 3.2 12.9 0.00 0.00 0.00 47 1025.2
20260510200021 16 94 6.4 12.9 0.00 0.00 0.00 47 1025.2
20260510195507 16 95 3.2 11.3 0.00 0.00 0.00 46 1025.2
20260510195010 16 82 4.8 9.7 0.00 0.00 0.00 44 1025.2
20260510194528 16 84 4.8 8.0 0.00 0.00 0.00 43 1025.1
20260510194009 16 23 3.2 9.7 0.00 0.00 0.00 41 1025.1
20260510193504 17 133 3.2 9.7 0.00 0.00 0.00 42 1024.9
20260510193006 17 155 3.2 16.1 0.00 0.00 0.00 40 1024.9
20260510192504 17 89 6.4 16.1 0.00 0.00 0.00 39 1024.9
20260510192003 18 113 3.2 16.1 0.00 0.00 0.00 38 1024.6
20260510191512 18 153 6.4 20.9 0.00 0.00 0.00 37 1024.5
20260510191004 19 224 3.2 20.9 0.00 0.00 0.00 37 1024.6
20260510190505 18 87 4.8 25.7 0.00 0.00 0.00 39 1024.4
20260510190020 18 49 9.7 25.7 0.00 0.00 0.00 38 1024.5
20260510185509 20 80 8.0 17.7 0.00 0.00 0.00 35 1024.4
20260510185009 21 79 4.8 17.7 0.00 0.00 0.00 32 1024.5
20260510184528 21 167 3.2 11.3 0.00 0.00 0.00 31 1024.3
20260510184009 22 52 4.8 11.3 0.00 0.00 0.00 30 1024.3
20260510183512 21 123 4.8 9.7 0.00 0.00 0.00 31 1024.1
20260510183026 21 105 4.8 14.5 0.00 0.00 0.00 31 1024.1
20260510182509 21 94 4.8 14.5 0.00 0.00 0.00 31 1024.3
20260510182017 21 174 6.4 17.7 0.00 0.00 0.00 32 1024.3
20260510181508 21 149 8.0 17.7 0.00 0.00 0.00 32 1024.3
20260510181004 21 101 4.8 12.9 0.00 0.00 0.00 30 1024.3
20260510180502 21 91 4.8 12.9 0.00 0.00 0.00 30 1024.3
20260510180018 21 266 4.8 14.5 0.00 0.00 0.00 31 1024.2
20260510175506 21 244 4.8 14.5 0.00 0.00 0.00 29 1024.3
20260510175004 20 100 3.2 14.5 0.00 0.00 0.00 31 1024.2
20260510174528 21 150 3.2 11.3 0.00 0.00 0.00 29 1024.5
20260510174006 20 85 3.2 12.9 0.00 0.00 0.00 30 1024.4
20260510173507 20 175 4.8 12.9 0.00 0.00 0.00 30 1024.6
20260510173025 20 155 4.8 9.7 0.00 0.00 0.00 31 1024.5
20260510172509 20 212 3.2 14.5 0.00 0.00 0.00 31 1024.6
20260510172012 20 72 6.4 17.7 0.00 0.00 0.00 32 1024.6
20260510171525 20 167 4.8 17.7 0.00 0.00 0.00 32 1024.6
20260510171009 20 160 3.2 8.0 0.00 0.00 0.00 30 1024.5
20260510170511 20 141 3.2 9.7 0.00 0.00 0.00 31 1024.5
20260510170010 20 128 1.6 11.3 0.00 0.00 0.00 32 1024.4
20260510165503 19 271 3.2 11.3 0.00 0.00 0.00 33 1024.4
20260510165003 19 201 3.2 11.3 0.00 0.00 0.00 34 1024.4
20260510164514 19 153 3.2 14.5 0.00 0.00 0.00 34 1024.4
20260510164004 18 252 3.2 14.5 0.00 0.00 0.00 35 1024.4
20260510163508 18 210 3.2 12.9 0.00 0.00 0.00 35 1024.3
20260510163020 18 88 1.6 14.5 0.00 0.00 0.00 35 1024.3
20260510162508 18 188 4.8 14.5 0.00 0.00 0.00 36 1024.3
20260510162007 18 75 3.2 12.9 0.00 0.00 0.00 36 1024.4
20260510161524 18 119 1.6 8.0 0.00 0.00 0.00 36 1024.3
20260510161009 18 151 3.2 8.0 0.00 0.00 0.00 35 1024.3
20260510160511 18 87 3.2 6.4 0.00 0.00 0.00 36 1024.3
20260510160026 17 124 3.2 11.3 0.00 0.00 0.00 36 1024.4
20260510155508 17 101 1.6 11.3 0.00 0.00 0.00 37 1024.2
20260510155011 17 169 3.2 9.7 0.00 0.00 0.00 38 1024.2
20260510154533 17 136 3.2 9.7 0.00 0.00 0.00 38 1024.2
20260510154002 17 46 3.2 9.7 0.00 0.00 0.00 40 1024.2
20260510153507 17 228 4.8 11.3 0.00 0.00 0.00 40 1024.3
20260510153020 16 155 3.2 14.5 0.00 0.00 0.00 40 1024.3
20260510152508 16 122 8.0 14.5 0.00 0.00 0.00 39 1024.1
20260510152009 16 151 3.2 9.7 0.00 0.00 0.00 40 1024.2
20260510151520 16 180 3.2 12.9 0.00 0.00 0.00 39 1024.0
20260510151010 17 213 3.2 12.9 0.00 0.00 0.00 38 1024.0
20260510150509 17 127 3.2 11.3 0.00 0.00 0.00 36 1023.9
20260510150027 16 178 3.2 9.7 0.00 0.00 0.00 36 1023.8
20260510145511 16 75 1.6 6.4 0.00 0.00 0.00 35 1023.8
20260510145012 16 67 1.6 4.8 0.00 0.00 0.00 34 1023.7
20260510144527 16 151 0.0 3.2 0.00 0.00 0.00 35 1023.8
20260510144012 16 65 1.6 3.2 0.00 0.00 0.00 36 1023.7
20260510143511 15 78 1.6 3.2 0.00 0.00 0.00 37 1023.8
20260510143033 14 235 0.0 3.2 0.00 0.00 0.00 38 1023.8
20260510142503 13 299 0.0 3.2 0.00 0.00 0.00 39 1024.0
20260510142009 13 79 0.0 3.2 0.00 0.00 0.00 41 1023.8
20260510141520 12 352 0.0 3.2 0.00 0.00 0.00 42 1023.8
20260510141012 12 79 0.0 3.2 0.00 0.00 0.00 43 1023.8
20260510140507 12 70 0.0 1.6 0.00 0.00 0.00 43 1023.7
20260510140025 12 334 0.0 1.6 0.00 0.00 0.00 43 1023.6
20260510135507 11 328 0.0 1.6 0.00 0.00 0.00 44 1023.6
20260510135013 11 326 0.0 0.0 0.00 0.00 0.00 47 1023.5
20260510134528 10 326 0.0 0.0 0.00 0.00 0.00 48 1023.5
20260510134002 10 326 0.0 0.0 0.00 0.00 0.00 48 1023.4
20260510133501 10 326 0.0 0.0 0.00 0.00 0.00 47 1023.3
20260510133005 10 326 0.0 1.6 0.00 0.00 0.00 47 1023.3
20260510132504 10 326 0.0 1.6 0.00 0.00 0.00 47 1023.2
20260510132002 10 330 0.0 1.6 0.00 0.00 0.00 46 1023.1
20260510131502 10 330 0.0 1.6 0.00 0.00 0.00 47 1023.1
20260510131002 10 330 0.0 1.6 0.00 0.00 0.00 47 1022.9
20260510130502 10 330 0.0 0.0 0.00 0.00 0.00 48 1022.8
20260510130004 10 330 0.0 0.0 0.00 0.00 0.00 47 1022.7
20260510125503 10 330 0.0 1.6 0.00 0.00 0.00 46 1022.5
20260510125003 10 330 0.0 1.6 0.00 0.00 0.00 46 1022.4
20260510124503 10 330 0.0 1.6 0.00 0.00 0.00 46 1022.3
20260510124002 10 330 0.0 1.6 0.00 0.00 0.00 46 1022.4
20260510123502 10 35 0.0 1.6 0.00 0.00 0.00 47 1022.3
20260510123007 10 89 0.0 1.6 0.00 0.00 0.00 46 1022.2
20260510122502 10 89 0.0 0.0 0.00 0.00 0.00 45 1022.3
20260510122002 11 89 0.0 0.0 0.00 0.00 0.00 44 1022.3
20260510121504 11 89 0.0 0.0 0.00 0.00 0.00 44 1022.2
20260510121003 11 89 0.0 0.0 0.00 0.00 0.00 43 1022.2
20260510120504 11 89 0.0 1.6 0.00 0.00 0.00 42 1022.3
20260510120005 12 89 0.0 1.6 0.00 0.00 0.00 42 1022.2
20260510115502 12 89 0.0 3.2 0.00 0.00 0.00 41 1022.2
20260510115002 12 89 0.0 3.2 0.00 0.00 0.00 40 1022.1
20260510114504 12 89 0.0 3.2 0.00 0.00 0.00 40 1022.2
20260510114002 12 113 0.0 3.2 0.00 0.00 0.00 39 1022.1
20260510113502 12 88 0.0 3.2 0.00 0.00 0.00 39 1022.1
20260510113004 12 120 0.0 4.8 0.00 0.00 0.00 39 1022.1
20260510112505 13 86 1.6 4.8 0.00 0.00 0.00 39 1022.3
20260510112003 13 65 1.6 4.8 0.00 0.00 0.00 38 1022.4
20260510111504 13 283 0.0 3.2 0.00 0.00 0.00 37 1022.6
20260510111004 13 335 1.6 11.3 0.00 0.00 0.00 37 1022.7
20260510110503 13 226 3.2 11.3 0.00 0.00 0.00 38 1022.7
20260510110013 13 350 1.6 8.0 0.00 0.00 0.00 36 1022.7
20260510105503 11 352 3.2 8.0 0.00 0.00 0.00 38 1022.3
20260510105003 10 74 0.0 1.6 0.00 0.00 0.00 36 1022.2
20260510104505 10 75 0.0 1.6 0.00 0.00 0.00 36 1022.1
20260510104002 10 75 0.0 1.6 0.00 0.00 0.00 35 1022.1
20260510103502 10 75 0.0 1.6 0.00 0.00 0.00 35 1022.1
20260510103004 10 75 0.0 1.6 0.00 0.00 0.00 35 1022.0
20260510102505 10 75 0.0 1.6 0.00 0.00 0.00 34 1021.9
20260510102002 10 89 0.0 3.2 0.00 0.00 0.00 34 1021.6
20260510101505 10 89 0.0 4.8 0.00 0.00 0.00 34 1021.3
20260510101003 10 78 1.6 4.8 0.00 0.00 0.00 35 1021.3
20260510100503 10 123 0.0 1.6 0.00 0.00 0.00 34 1021.3
20260510100006 10 25 0.0 0.0 0.00 0.00 0.00 35 1021.5
20260510095505 10 25 0.0 1.6 0.00 0.00 0.00 34 1021.6
20260510095003 10 25 0.0 1.6 0.00 0.00 0.00 35 1021.5
20260510094505 10 25 0.0 1.6 0.00 0.00 0.00 34 1021.2
20260510094003 10 32 0.0 0.0 0.00 0.00 0.00 35 1020.9
20260510093503 10 32 0.0 1.6 0.00 0.00 0.00 35 1020.8
20260510093006 10 32 0.0 1.6 0.00 0.00 0.00 35 1020.6
20260510092503 10 299 0.0 1.6 0.00 0.00 0.00 34 1020.3
20260510092003 10 299 0.0 1.6 0.00 0.00 0.00 34 1020.0
20260510091504 10 84 0.0 1.6 0.00 0.00 0.00 35 1019.9
20260510091002 10 84 0.0 4.8 0.00 0.00 0.00 34 1019.8
20260510090503 10 65 0.0 4.8 0.00 0.00 0.00 33 1019.7
20260510090008 10 330 0.0 1.6 0.00 0.00 0.00 34 1019.7
20260510085502 10 328 0.0 1.6 0.00 0.00 0.00 34 1019.7
20260510085003 10 327 0.0 1.6 0.00 0.00 0.00 33 1019.6
20260510084506 10 61 0.0 0.0 0.00 0.00 0.00 33 1019.5
20260510084002 10 61 0.0 1.6 0.00 0.00 0.00 33 1019.5
20260510083505 10 61 0.0 1.6 0.00 0.00 0.00 32 1019.5
20260510083009 10 331 0.0 1.6 0.00 0.00 0.00 32 1019.5
20260510082503 10 330 0.0 1.6 0.00 0.00 0.00 31 1019.4
20260510082003 10 309 0.0 3.2 0.00 0.00 0.00 31 1019.3
20260510081507 10 326 0.0 3.2 0.00 0.00 0.00 31 1019.3
20260510081003 10 338 0.0 3.2 0.00 0.00 0.00 31 1019.3
20260510080504 10 325 0.0 3.2 0.00 0.00 0.00 31 1019.4
20260510080006 10 338 0.0 1.6 0.00 0.00 0.00 31 1019.4
20260510075504 10 65 0.0 3.2 0.00 0.00 0.00 31 1019.2
20260510075007 10 334 0.0 3.2 0.00 0.00 0.00 31 1019.2
20260510074508 10 4 0.0 1.6 0.00 0.00 0.00 31 1019.2
20260510074002 10 12 0.0 1.6 0.00 0.00 0.00 31 1019.2
20260510073505 10 27 0.0 1.6 0.00 0.00 0.00 30 1019.2
20260510073009 10 51 0.0 1.6 0.00 0.00 0.00 30 1019.2
20260510072504 10 64 0.0 1.6 0.00 0.00 0.00 30 1019.2
20260510072004 10 118 0.0 0.0 0.00 0.00 0.00 29 1019.1
20260510071507 11 118 0.0 1.6 0.00 0.00 0.00 29 1019.1
20260510071004 11 118 0.0 1.6 0.00 0.00 0.00 28 1019.1
20260510070504 11 120 0.0 1.6 0.00 0.00 0.00 28 1019.2
20260510070010 11 120 0.0 1.6 0.00 0.00 0.00 28 1019.1
20260510065503 11 122 0.0 1.6 0.00 0.00 0.00 27 1019.0
20260510065004 12 122 0.0 3.2 0.00 0.00 0.00 27 1019.1
20260510064506 12 140 0.0 3.2 0.00 0.00 0.00 27 1019.0
20260510064003 11 336 0.0 1.6 0.00 0.00 0.00 27 1019.2
20260510063505 11 300 0.0 1.6 0.00 0.00 0.00 27 1019.2
20260510063013 11 138 0.0 1.6 0.00 0.00 0.00 26 1019.1
20260510062506 11 32 0.0 1.6 0.00 0.00 0.00 27 1019.1
20260510062005 11 32 0.0 3.2 0.00 0.00 0.00 27 1019.0
20260510061512 11 32 0.0 3.2 0.00 0.00 0.00 27 1019.0
20260510061005 11 139 0.0 1.6 0.00 0.00 0.00 26 1018.8
20260510060505 11 34 0.0 1.6 0.00 0.00 0.00 26 1018.9
20260510060013 11 35 0.0 1.6 0.00 0.00 0.00 26 1018.9
20260510055505 11 35 0.0 3.2 0.00 0.00 0.00 26 1018.8
20260510055003 11 36 0.0 3.2 0.00 0.00 0.00 26 1018.8
20260510054512 11 123 0.0 3.2 0.00 0.00 0.00 25 1018.6
20260510054005 11 302 0.0 1.6 0.00 0.00 0.00 26 1018.5
20260510053503 11 305 0.0 1.6 0.00 0.00 0.00 26 1018.5
20260510053016 11 302 0.0 1.6 0.00 0.00 0.00 26 1018.5
20260510052503 11 302 0.0 1.6 0.00 0.00 0.00 25 1018.4
20260510052004 12 300 0.0 1.6 0.00 0.00 0.00 25 1018.4
20260510051512 12 39 0.0 1.6 0.00 0.00 0.00 24 1018.3
20260510051005 12 39 0.0 1.6 0.00 0.00 0.00 24 1018.4
20260510050504 12 9 0.0 1.6 0.00 0.00 0.00 24 1018.6
20260510050012 13 9 0.0 1.6 0.00 0.00 0.00 23 1018.5
20260510045505 13 9 0.0 0.0 0.00 0.00 0.00 23 1018.5
20260510045005 13 9 0.0 0.0 0.00 0.00 0.00 22 1018.6
20260510044514 13 9 0.0 0.0 0.00 0.00 0.00 21 1018.6
20260510044002 14 9 0.0 0.0 0.00 0.00 0.00 20 1018.7
20260510043504 14 9 0.0 1.6 0.00 0.00 0.00 19 1018.6
20260510043008 15 359 0.0 1.6 0.00 0.00 0.00 19 1018.6
20260510042503 15 359 0.0 1.6 0.00 0.00 0.00 19 1018.6
20260510042004 15 354 0.0 1.6 0.00 0.00 0.00 18 1018.5
20260510041507 16 320 0.0 1.6 0.00 0.00 0.00 17 1018.5
20260510041008 16 323 0.0 1.6 0.00 0.00 0.00 16 1018.4
20260510040504 16 323 0.0 0.0 0.00 0.00 0.00 15 1018.5
20260510040015 17 323 0.0 1.6 0.00 0.00 0.00 15 1018.4
20260510035504 17 323 0.0 1.6 0.00 0.00 0.00 15 1018.3
20260510035003 18 340 0.0 4.8 0.00 0.00 0.00 14 1018.3
20260510034504 18 352 0.0 4.8 0.00 0.00 0.00 14 1018.2
20260510034003 18 320 0.0 3.2 0.00 0.00 0.00 13 1018.1
20260510033503 18 333 0.0 3.2 0.00 0.00 0.00 13 1018.0
20260510033003 18 352 0.0 3.2 0.00 0.00 0.00 13 1017.9
20260510032504 19 326 0.0 3.2 0.00 0.00 0.00 13 1017.8
20260510032004 19 321 0.0 3.2 0.00 0.00 0.00 13 1017.8
20260510031508 19 352 0.0 3.2 0.00 0.00 0.00 13 1017.8
20260510031004 19 332 0.0 6.4 0.00 0.00 0.00 13 1017.7
20260510030506 18 330 0.0 6.4 0.00 0.00 0.00 14 1017.8
20260510030010 18 26 0.0 1.6 0.00 0.00 0.00 15 1017.6
20260510025506 19 26 0.0 1.6 0.00 0.00 0.00 14 1017.5
20260510025004 19 26 0.0 1.6 0.00 0.00 0.00 14 1017.3
20260510024519 19 26 0.0 1.6 0.00 0.00 0.00 14 1017.3
20260510024006 20 8 0.0 3.2 0.00 0.00 0.00 14 1017.3
20260510023503 20 316 0.0 3.2 0.00 0.00 0.00 13 1017.1
20260510023003 20 282 0.0 4.8 0.00 0.00 0.00 13 1017.0
20260510022503 20 303 0.0 4.8 0.00 0.00 0.00 13 1017.0
20260510022003 20 347 1.6 4.8 0.00 0.00 0.00 13 1017.0
20260510021503 20 347 0.0 4.8 0.00 0.00 0.00 13 1016.9
20260510021004 20 340 1.6 4.8 0.00 0.00 0.00 13 1016.8
20260510020504 20 32 0.0 3.2 0.00 0.00 0.00 12 1016.7
20260510020008 21 333 0.0 8.0 0.00 0.00 0.00 12 1016.8
20260510015505 21 285 3.2 9.7 0.00 0.00 0.00 12 1016.7
20260510015005 21 289 3.2 9.7 0.00 0.00 0.00 12 1016.7
20260510014511 21 318 1.6 6.4 0.00 0.00 0.00 12 1016.6
20260510014006 21 325 1.6 6.4 0.00 0.00 0.00 12 1016.7
20260510013508 21 291 0.0 6.4 0.00 0.00 0.00 12 1016.5
20260510013017 21 255 1.6 8.0 0.00 0.00 0.00 12 1016.5
20260510012507 21 13 3.2 8.0 0.00 0.00 0.00 12 1016.5
20260510012010 21 77 1.6 8.0 0.00 0.00 0.00 12 1016.4
20260510011504 21 303 1.6 8.0 0.00 0.00 0.00 12 1016.3
20260510011003 21 287 0.0 8.0 0.00 0.00 0.00 12 1016.2
20260510010503 22 305 1.6 11.3 0.00 0.00 0.00 11 1016.2
20260510010006 22 302 3.2 11.3 0.00 0.00 0.00 11 1016.2
20260510005503 22 360 3.2 8.0 0.00 0.00 0.00 12 1016.3
20260510005004 22 260 3.2 12.9 0.00 0.00 0.00 11 1016.1
20260510004508 22 317 1.6 12.9 0.00 0.00 0.00 11 1016.0
20260510004003 22 11 1.6 9.7 0.00 0.00 0.00 11 1016.2
20260510003508 22 340 1.6 8.0 0.00 0.00 0.00 11 1016.1
20260510003023 22 296 3.2 8.0 0.00 0.00 0.00 11 1015.9
20260510002506 22 240 1.6 9.7 0.00 0.00 0.00 11 1015.8
20260510002010 23 1 3.2 9.7 0.00 0.00 0.00 11 1016.0
20260510001521 23 39 3.2 9.7 0.00 0.00 0.00 11 1015.8
20260510001007 23 316 3.2 8.0 0.00 0.00 0.00 11 1015.8
20260510000506 23 289 3.2 11.3 0.00 0.00 0.00 11 1015.7
20260510000004 23 341 3.2 11.3 0.00 0.00 0.00 11 1015.7
20260509235502 23 304 3.2 8.0 0.00 0.00 0.00 11 1015.7
20260509235003 23 330 1.6 8.0 0.00 0.00 0.00 11 1015.6
20260509234512 23 278 1.6 8.0 0.00 0.00 0.00 11 1015.7
20260509234003 23 91 1.6 9.7 0.00 0.00 0.00 11 1015.7
20260509233504 23 321 3.2 9.7 0.00 0.00 0.00 11 1015.7
20260509233021 24 3 3.2 9.7 0.00 0.00 0.00 11 1015.9
20260509232512 24 318 3.2 11.3 0.00 0.00 0.00 11 1015.7
20260509232006 23 283 3.2 11.3 0.00 0.00 0.00 11 1015.7
20260509231516 23 345 0.0 8.0 0.00 0.00 0.00 11 1015.7
20260509231007 23 276 1.6 11.3 0.00 0.00 0.00 11 1015.7
20260509230508 24 277 4.8 11.3 0.00 0.00 0.00 11 1015.7
20260509230028 24 345 3.2 11.3 0.00 0.00 0.00 11 1015.9
20260509225508 24 215 3.2 9.7 0.00 0.00 0.00 10 1016.2
20260509225011 24 214 3.2 9.7 0.00 0.00 0.00 11 1016.1
20260509224531 25 295 3.2 9.7 0.00 0.00 0.00 10 1016.2
20260509224005 25 75 1.6 11.3 0.00 0.00 0.00 11 1015.7
20260509223504 25 193 1.6 11.3 0.00 0.00 0.00 11 1015.9
20260509223007 25 308 3.2 11.3 0.00 0.00 0.00 12 1016.2
20260509222504 23 268 3.2 8.0 0.00 0.00 0.00 12 1016.1
20260509222005 23 72 1.6 6.4 0.00 0.00 0.00 12 1016.2
20260509221517 23 32 1.6 9.7 0.00 0.00 0.00 12 1016.1
20260509221011 23 135 1.6 9.7 0.00 0.00 0.00 12 1016.1
20260509220510 24 101 1.6 8.0 0.00 0.00 0.00 12 1016.2
20260509220021 25 229 3.2 6.4 0.00 0.00 0.00 11 1016.2
20260509215507 25 289 1.6 16.1 0.00 0.00 0.00 11 1016.4
20260509215012 25 250 1.6 16.1 0.00 0.00 0.00 12 1016.5
20260509214525 25 263 3.2 16.1 0.00 0.00 0.00 11 1016.5
20260509214009 25 254 3.2 8.0 0.00 0.00 0.00 11 1016.7
20260509213508 26 334 3.2 9.7 0.00 0.00 0.00 11 1016.6
20260509213026 25 211 3.2 11.3 0.00 0.00 0.00 11 1016.7
20260509212501 25 312 3.2 11.3 0.00 0.00 0.00 12 1016.9
20260509212002 25 326 3.2 8.0 0.00 0.00 0.00 12 1016.7
20260509211512 25 266 1.6 9.7 0.00 0.00 0.00 12 1017.1
20260509211006 25 330 3.2 14.5 0.00 0.00 0.00 11 1017.2
20260509210511 26 290 6.4 14.5 0.00 0.00 0.00 10 1017.1
20260509210018 27 4 3.2 6.4 0.00 0.00 0.00 10 1017.1
20260509205508 27 219 3.2 16.1 0.00 0.00 0.00 11 1017.3
20260509205007 27 235 1.6 16.1 0.00 0.00 0.00 11 1017.3